Year,Month,Day,Hour,Minute,Value (Times are PST for windgust in km/hr)
2010,08,26,00,24,1.60
2010,08,26,00,28,3.20
2010,08,26,00,29,1.60
2010,08,26,00,30,4.80
2010,08,26,00,31,4.80
2010,08,26,00,32,3.20
2010,08,26,00,39,4.80
2010,08,26,00,40,4.80
2010,08,26,00,41,3.20
2010,08,26,00,43,1.60
2010,08,26,00,44,6.40
2010,08,26,00,45,6.40
2010,08,26,00,46,3.20
2010,08,26,00,47,3.20
2010,08,26,01,35,3.20
2010,08,26,01,36,3.20
2010,08,26,01,37,3.20
2010,08,26,01,38,4.80
2010,08,26,01,39,3.20
2010,08,26,01,40,4.80
2010,08,26,01,41,4.80
2010,08,26,01,42,3.20
2010,08,26,01,43,1.60
2010,08,26,01,44,1.60
2010,08,26,01,45,1.60
2010,08,26,01,46,3.20
2010,08,26,01,47,4.80
2010,08,26,01,48,3.20
2010,08,26,01,49,3.20
2010,08,26,01,50,4.80
2010,08,26,01,51,1.60
2010,08,26,02,03,1.60
2010,08,26,02,04,1.60
2010,08,26,02,09,3.20
2010,08,26,02,10,3.20
2010,08,26,02,14,4.80
2010,08,26,02,15,3.20
2010,08,26,02,16,3.20
2010,08,26,02,17,3.20
2010,08,26,02,23,1.60
2010,08,26,02,30,1.60
2010,08,26,02,31,4.80
2010,08,26,02,32,3.20
2010,08,26,03,36,3.20
2010,08,26,03,37,3.20
2010,08,26,03,38,1.60
2010,08,26,03,40,1.60
2010,08,26,03,41,6.40
2010,08,26,03,46,3.20
2010,08,26,03,47,1.60
2010,08,26,03,48,1.60
2010,08,26,03,53,3.20
2010,08,26,03,54,3.20
2010,08,26,04,15,1.60
2010,08,26,04,16,1.60
2010,08,26,04,17,4.80
2010,08,26,04,18,4.80
2010,08,26,04,31,3.20
2010,08,26,04,32,1.60
2010,08,26,04,33,3.20
2010,08,26,04,34,1.60
2010,08,26,04,38,3.20
2010,08,26,04,39,1.60
2010,08,26,04,47,1.60
2010,08,26,04,48,3.20
2010,08,26,04,49,3.20
2010,08,26,04,51,3.20
2010,08,26,04,52,3.20
2010,08,26,04,53,3.20
2010,08,26,04,54,1.60
2010,08,26,05,03,1.60
2010,08,26,05,39,3.20
2010,08,26,05,40,1.60
2010,08,26,05,42,1.60
2010,08,26,05,47,3.20
2010,08,26,05,50,1.60
2010,08,26,05,55,3.20
2010,08,26,05,56,1.60
2010,08,26,05,57,1.60
2010,08,26,05,58,1.60
2010,08,26,06,03,3.20
2010,08,26,06,04,1.60
2010,08,26,06,09,1.60
2010,08,26,06,13,1.60
2010,08,26,06,14,1.60
2010,08,26,06,18,1.60
2010,08,26,06,37,1.60
2010,08,26,06,39,3.20
2010,08,26,06,40,1.60
2010,08,26,06,55,1.60
2010,08,26,07,15,3.20
2010,08,26,07,16,4.80
2010,08,26,07,17,3.20
2010,08,26,07,18,1.60
2010,08,26,07,21,3.20
2010,08,26,07,22,1.60
2010,08,26,07,26,1.60
2010,08,26,07,27,3.20
2010,08,26,07,28,3.20
2010,08,26,07,34,1.60
2010,08,26,07,35,1.60
2010,08,26,07,36,1.60
2010,08,26,07,37,1.60
2010,08,26,07,43,1.60
2010,08,26,07,44,1.60
2010,08,26,07,51,3.20
2010,08,26,07,52,1.60
2010,08,26,07,55,1.60
2010,08,26,07,56,1.60
2010,08,26,07,57,1.60
2010,08,26,07,58,1.60
2010,08,26,08,03,1.60
2010,08,26,08,32,3.20
2010,08,26,08,33,1.60
2010,08,26,08,34,3.20
2010,08,26,08,35,1.60
2010,08,26,08,36,1.60
2010,08,26,08,42,1.60
2010,08,26,08,45,1.60
2010,08,26,08,46,3.20
2010,08,26,08,47,4.80
2010,08,26,08,48,3.20
2010,08,26,08,52,1.60
2010,08,26,08,53,4.80
2010,08,26,08,54,3.20
2010,08,26,08,55,1.60
2010,08,26,09,02,3.20
2010,08,26,09,03,3.20
2010,08,26,09,04,1.60
2010,08,26,09,05,3.20
2010,08,26,09,06,3.20
2010,08,26,09,07,1.60
2010,08,26,09,09,1.60
2010,08,26,09,10,1.60
2010,08,26,09,12,1.60
2010,08,26,09,13,1.60
2010,08,26,09,17,1.60
2010,08,26,09,19,1.60
2010,08,26,09,20,1.60
2010,08,26,09,21,1.60
2010,08,26,09,23,3.20
2010,08,26,09,24,3.20
2010,08,26,09,25,1.60
2010,08,26,09,28,3.20
2010,08,26,09,29,3.20
2010,08,26,09,30,4.80
2010,08,26,09,33,1.60
2010,08,26,09,35,1.60
2010,08,26,09,36,1.60
2010,08,26,09,38,3.20
2010,08,26,09,42,1.60
2010,08,26,09,43,1.60
2010,08,26,09,45,3.20
2010,08,26,09,46,3.20
2010,08,26,09,47,1.60
2010,08,26,09,48,3.20
2010,08,26,09,49,4.80
2010,08,26,09,50,3.20
2010,08,26,09,51,3.20
2010,08,26,09,52,1.60
2010,08,26,09,55,1.60
2010,08,26,09,56,3.20
2010,08,26,09,58,4.80
2010,08,26,09,59,3.20
2010,08,26,10,00,3.20
2010,08,26,10,01,3.20
2010,08,26,10,02,1.60
2010,08,26,10,03,3.20
2010,08,26,10,04,4.80
2010,08,26,10,05,4.80
2010,08,26,10,07,4.80
2010,08,26,10,08,4.80
2010,08,26,10,10,3.20
2010,08,26,10,11,1.60
2010,08,26,10,12,3.20
2010,08,26,10,13,3.20
2010,08,26,10,15,3.20
2010,08,26,10,16,3.20
2010,08,26,10,17,4.80
2010,08,26,10,18,3.20
2010,08,26,10,19,4.80
2010,08,26,10,20,3.20
2010,08,26,10,25,3.20
2010,08,26,10,27,1.60
2010,08,26,10,30,3.20
2010,08,26,10,31,3.20
2010,08,26,10,32,3.20
2010,08,26,10,33,1.60
2010,08,26,10,34,1.60
2010,08,26,10,35,3.20
2010,08,26,10,36,4.80
2010,08,26,10,37,6.40
2010,08,26,10,38,4.80
2010,08,26,10,39,1.60
2010,08,26,10,40,3.20
2010,08,26,10,41,3.20
2010,08,26,10,42,4.80
2010,08,26,10,43,3.20
2010,08,26,10,44,1.60
2010,08,26,10,45,3.20
2010,08,26,10,46,3.20
2010,08,26,10,47,3.20
2010,08,26,10,48,3.20
2010,08,26,10,49,3.20
2010,08,26,10,50,4.80
2010,08,26,10,51,4.80
2010,08,26,10,52,4.80
2010,08,26,10,53,4.80
2010,08,26,10,54,1.60
2010,08,26,10,56,6.40
2010,08,26,10,57,6.40
2010,08,26,10,58,6.40
2010,08,26,10,59,9.60
2010,08,26,11,00,3.20
2010,08,26,11,01,6.40
2010,08,26,11,02,6.40
2010,08,26,11,03,1.60
2010,08,26,11,04,6.40
2010,08,26,11,05,9.60
2010,08,26,11,06,4.80
2010,08,26,11,07,6.40
2010,08,26,11,08,16.10
2010,08,26,11,09,8.10
2010,08,26,11,10,4.80
2010,08,26,11,11,8.10
2010,08,26,11,12,4.80
2010,08,26,11,13,9.60
2010,08,26,11,14,6.40
2010,08,26,11,15,8.10
2010,08,26,11,16,6.40
2010,08,26,11,17,8.10
2010,08,26,11,18,8.10
2010,08,26,11,19,9.60
2010,08,26,11,20,14.50
2010,08,26,11,21,11.30
2010,08,26,11,22,6.40
2010,08,26,11,23,6.40
2010,08,26,11,24,3.20
2010,08,26,11,25,4.80
2010,08,26,11,26,3.20
2010,08,26,11,27,6.40
2010,08,26,11,28,3.20
2010,08,26,11,30,3.20
2010,08,26,11,31,1.60
2010,08,26,11,32,3.20
2010,08,26,11,33,4.80
2010,08,26,11,34,4.80
2010,08,26,11,35,6.40
2010,08,26,11,36,4.80
2010,08,26,11,37,4.80
2010,08,26,11,38,4.80
2010,08,26,11,39,4.80
2010,08,26,11,40,4.80
2010,08,26,11,41,1.60
2010,08,26,11,42,3.20
2010,08,26,11,43,3.20
2010,08,26,11,44,6.40
2010,08,26,11,45,4.80
2010,08,26,11,46,4.80
2010,08,26,11,47,4.80
2010,08,26,11,48,1.60
2010,08,26,11,49,8.10
2010,08,26,11,50,14.50
2010,08,26,11,51,22.50
2010,08,26,11,52,12.90
2010,08,26,11,53,11.30
2010,08,26,11,54,14.50
2010,08,26,11,55,14.50
2010,08,26,11,56,8.10
2010,08,26,11,57,11.30
2010,08,26,11,58,20.90
2010,08,26,11,59,11.30
2010,08,26,12,00,19.30
2010,08,26,12,01,16.10
2010,08,26,12,02,24.20
2010,08,26,12,03,27.40
2010,08,26,12,04,25.70
2010,08,26,12,05,14.50
2010,08,26,12,06,25.70
2010,08,26,12,07,17.70
2010,08,26,12,08,24.20
2010,08,26,12,09,20.90
2010,08,26,12,10,22.50
2010,08,26,12,11,19.30
2010,08,26,12,12,24.20
2010,08,26,12,13,20.90
2010,08,26,12,14,24.20
2010,08,26,12,15,17.70
2010,08,26,12,16,19.30
2010,08,26,12,17,20.90
2010,08,26,12,18,24.20
2010,08,26,12,19,22.50
2010,08,26,12,20,25.70
2010,08,26,12,21,29.00
2010,08,26,12,22,17.70
2010,08,26,12,23,17.70
2010,08,26,12,24,17.70
2010,08,26,12,25,14.50
2010,08,26,12,26,17.70
2010,08,26,12,27,17.70
2010,08,26,12,28,17.70
2010,08,26,12,29,17.70
2010,08,26,12,30,17.70
2010,08,26,12,31,4.80
2010,08,26,12,32,11.30
2010,08,26,12,33,14.50
2010,08,26,12,34,11.30
2010,08,26,12,35,6.40
2010,08,26,12,36,9.60
2010,08,26,12,37,9.60
2010,08,26,12,38,9.60
2010,08,26,12,39,17.70
2010,08,26,12,40,11.30
2010,08,26,12,41,6.40
2010,08,26,12,42,8.10
2010,08,26,12,43,9.60
2010,08,26,12,44,8.10
2010,08,26,12,45,11.30
2010,08,26,12,46,9.60
2010,08,26,12,47,9.60
2010,08,26,12,48,11.30
2010,08,26,12,49,16.10
2010,08,26,12,50,12.90
2010,08,26,12,51,9.60
2010,08,26,12,52,8.10
2010,08,26,12,53,4.80
2010,08,26,12,54,6.40
2010,08,26,12,55,6.40
2010,08,26,12,56,11.30
2010,08,26,12,57,9.60
2010,08,26,12,58,8.10
2010,08,26,12,59,9.60
2010,08,26,13,00,8.10
2010,08,26,13,01,6.40
2010,08,26,13,02,6.40
2010,08,26,13,03,4.80
2010,08,26,13,04,4.80
2010,08,26,13,05,4.80
2010,08,26,13,06,6.40
2010,08,26,13,07,4.80
2010,08,26,13,08,3.20
2010,08,26,13,09,6.40
2010,08,26,13,10,4.80
2010,08,26,13,11,4.80
2010,08,26,13,12,4.80
2010,08,26,13,13,4.80
2010,08,26,13,14,6.40
2010,08,26,13,15,6.40
2010,08,26,13,16,8.10
2010,08,26,13,17,8.10
2010,08,26,13,18,4.80
2010,08,26,13,19,8.10
2010,08,26,13,20,6.40
2010,08,26,13,21,4.80
2010,08,26,13,22,4.80
2010,08,26,13,23,4.80
2010,08,26,13,24,6.40
2010,08,26,13,25,6.40
2010,08,26,13,26,6.40
2010,08,26,13,27,4.80
2010,08,26,13,28,6.40
2010,08,26,13,29,4.80
2010,08,26,13,30,11.30
2010,08,26,13,31,17.70
2010,08,26,13,32,32.20
2010,08,26,13,33,20.90
2010,08,26,13,34,14.50
2010,08,26,13,35,16.10
2010,08,26,13,36,4.80
2010,08,26,13,37,4.80
2010,08,26,13,38,6.40
2010,08,26,13,39,12.90
2010,08,26,13,40,11.30
2010,08,26,13,41,16.10
2010,08,26,13,42,16.10
2010,08,26,13,43,4.80
2010,08,26,13,44,22.50
2010,08,26,13,45,35.40
2010,08,26,13,46,35.40
2010,08,26,13,47,25.70
2010,08,26,13,48,32.20
2010,08,26,13,49,29.00
2010,08,26,13,50,24.20
2010,08,26,13,51,20.90
2010,08,26,13,52,22.50
2010,08,26,13,53,25.70
2010,08,26,13,54,19.30
2010,08,26,13,55,25.70
2010,08,26,13,56,17.70
2010,08,26,13,57,25.70
2010,08,26,13,58,22.50
2010,08,26,13,59,19.30
2010,08,26,14,00,19.30
2010,08,26,14,01,37.00
2010,08,26,14,02,38.60
2010,08,26,14,03,35.40
2010,08,26,14,04,38.60
2010,08,26,14,05,25.70
2010,08,26,14,06,24.20
2010,08,26,14,07,25.70
2010,08,26,14,08,29.00
2010,08,26,14,09,25.70
2010,08,26,14,10,33.80
2010,08,26,14,11,14.50
2010,08,26,14,12,22.50
2010,08,26,14,13,17.70
2010,08,26,14,14,27.40
2010,08,26,14,15,25.70
2010,08,26,14,16,24.20
2010,08,26,14,17,33.80
2010,08,26,14,18,22.50
2010,08,26,14,19,33.80
2010,08,26,14,20,38.60
2010,08,26,14,21,33.80
2010,08,26,14,22,25.70
2010,08,26,14,23,32.20
2010,08,26,14,24,27.40
2010,08,26,14,25,30.60
2010,08,26,14,26,32.20
2010,08,26,14,27,27.40
2010,08,26,14,28,27.40
2010,08,26,14,29,32.20
2010,08,26,14,30,33.80
2010,08,26,14,31,25.70
2010,08,26,14,32,33.80
2010,08,26,14,33,25.70
2010,08,26,14,34,25.70
2010,08,26,14,35,33.80
2010,08,26,14,36,25.70
2010,08,26,14,37,20.90
2010,08,26,14,38,27.40
2010,08,26,14,39,30.60
2010,08,26,14,40,29.00
2010,08,26,14,41,30.60
2010,08,26,14,42,37.00
2010,08,26,14,43,35.40
2010,08,26,14,44,37.00
2010,08,26,14,45,27.40
2010,08,26,14,46,29.00
2010,08,26,14,47,29.00
2010,08,26,14,48,29.00
2010,08,26,14,49,38.60
2010,08,26,14,50,30.60
2010,08,26,14,51,33.80
2010,08,26,14,52,38.60
2010,08,26,14,53,30.60
2010,08,26,14,54,29.00
2010,08,26,14,55,35.40
2010,08,26,14,56,33.80
2010,08,26,14,57,24.20
2010,08,26,14,58,40.20
2010,08,26,14,59,27.40
2010,08,26,15,00,30.60
2010,08,26,15,01,30.60
2010,08,26,15,02,25.70
2010,08,26,15,03,29.00
2010,08,26,15,04,40.20
2010,08,26,15,05,45.10
2010,08,26,15,06,27.40
2010,08,26,15,07,32.20
2010,08,26,15,08,30.60
2010,08,26,15,09,24.20
2010,08,26,15,10,22.50
2010,08,26,15,11,37.00
2010,08,26,15,12,30.60
2010,08,26,15,13,22.50
2010,08,26,15,14,29.00
2010,08,26,15,15,33.80
2010,08,26,15,16,32.20
2010,08,26,15,17,32.20
2010,08,26,15,18,22.50
2010,08,26,15,19,33.80
2010,08,26,15,20,24.20
2010,08,26,15,21,32.20
2010,08,26,15,22,29.00
2010,08,26,15,23,20.90
2010,08,26,15,24,33.80
2010,08,26,15,25,29.00
2010,08,26,15,26,33.80
2010,08,26,15,27,35.40
2010,08,26,15,28,32.20
2010,08,26,15,29,29.00
2010,08,26,15,30,27.40
2010,08,26,15,31,27.40
2010,08,26,15,32,14.50
2010,08,26,15,33,24.20
2010,08,26,15,34,30.60
2010,08,26,15,35,25.70
2010,08,26,15,36,29.00
2010,08,26,15,37,29.00
2010,08,26,15,38,35.40
2010,08,26,15,39,27.40
2010,08,26,15,40,37.00
2010,08,26,15,41,33.80
2010,08,26,15,42,33.80
2010,08,26,15,43,40.20
2010,08,26,15,44,37.00
2010,08,26,15,45,30.60
2010,08,26,15,46,38.60
2010,08,26,15,47,24.20
2010,08,26,15,48,22.50
2010,08,26,15,49,22.50
2010,08,26,15,50,29.00
2010,08,26,15,51,32.20
2010,08,26,15,52,24.20
2010,08,26,15,53,24.20
2010,08,26,15,54,25.70
2010,08,26,15,55,25.70
2010,08,26,15,56,22.50
2010,08,26,15,57,38.60
2010,08,26,15,58,38.60
2010,08,26,15,59,24.20
2010,08,26,16,00,27.40
2010,08,26,16,01,32.20
2010,08,26,16,02,29.00
2010,08,26,16,03,30.60
2010,08,26,16,04,25.70
2010,08,26,16,05,37.00
2010,08,26,16,06,20.90
2010,08,26,16,07,20.90
2010,08,26,16,08,20.90
2010,08,26,16,09,30.60
2010,08,26,16,10,32.20
2010,08,26,16,11,33.80
2010,08,26,16,12,33.80
2010,08,26,16,13,33.80
2010,08,26,16,14,30.60
2010,08,26,16,15,37.00
2010,08,26,16,16,29.00
2010,08,26,16,17,30.60
2010,08,26,16,18,25.70
2010,08,26,16,19,25.70
2010,08,26,16,20,20.90
2010,08,26,16,21,24.20
2010,08,26,16,22,16.10
2010,08,26,16,23,25.70
2010,08,26,16,24,32.20
2010,08,26,16,25,33.80
2010,08,26,16,26,25.70
2010,08,26,16,27,22.50
2010,08,26,16,28,22.50
2010,08,26,16,29,30.60
2010,08,26,16,30,32.20
2010,08,26,16,31,29.00
2010,08,26,16,32,32.20
2010,08,26,16,33,27.40
2010,08,26,16,34,33.80
2010,08,26,16,35,37.00
2010,08,26,16,36,41.80
2010,08,26,16,37,35.40
2010,08,26,16,38,32.20
2010,08,26,16,39,20.90
2010,08,26,16,40,25.70
2010,08,26,16,41,27.40
2010,08,26,16,42,30.60
2010,08,26,16,43,25.70
2010,08,26,16,44,27.40
2010,08,26,16,45,33.80
2010,08,26,16,46,33.80
2010,08,26,16,47,32.20
2010,08,26,16,48,30.60
2010,08,26,16,49,30.60
2010,08,26,16,50,30.60
2010,08,26,16,51,20.90
2010,08,26,16,52,19.30
2010,08,26,16,53,30.60
2010,08,26,16,54,29.00
2010,08,26,16,55,22.50
2010,08,26,16,56,24.20
2010,08,26,16,57,22.50
2010,08,26,16,58,29.00
2010,08,26,16,59,25.70
2010,08,26,17,00,30.60
2010,08,26,17,01,30.60
2010,08,26,17,02,20.90
2010,08,26,17,03,25.70
2010,08,26,17,04,24.20
2010,08,26,17,05,22.50
2010,08,26,17,06,19.30
2010,08,26,17,07,27.40
2010,08,26,17,08,29.00
2010,08,26,17,09,29.00
2010,08,26,17,10,29.00
2010,08,26,17,11,25.70
2010,08,26,17,12,33.80
2010,08,26,17,13,29.00
2010,08,26,17,14,22.50
2010,08,26,17,15,37.00
2010,08,26,17,16,29.00
2010,08,26,17,17,17.70
2010,08,26,17,18,22.50
2010,08,26,17,19,20.90
2010,08,26,17,20,19.30
2010,08,26,17,21,22.50
2010,08,26,17,22,24.20
2010,08,26,17,23,27.40
2010,08,26,17,24,27.40
2010,08,26,17,25,20.90
2010,08,26,17,26,24.20
2010,08,26,17,27,22.50
2010,08,26,17,28,22.50
2010,08,26,17,29,16.10
2010,08,26,17,30,12.90
2010,08,26,17,31,24.20
2010,08,26,17,32,16.10
2010,08,26,17,33,20.90
2010,08,26,17,34,22.50
2010,08,26,17,35,19.30
2010,08,26,17,36,29.00
2010,08,26,17,37,29.00
2010,08,26,17,38,16.10
2010,08,26,17,39,27.40
2010,08,26,17,40,20.90
2010,08,26,17,41,22.50
2010,08,26,17,42,27.40
2010,08,26,17,43,27.40
2010,08,26,17,44,25.70
2010,08,26,17,45,24.20
2010,08,26,17,46,20.90
2010,08,26,17,47,19.30
2010,08,26,17,48,22.50
2010,08,26,17,49,27.40
2010,08,26,17,50,20.90
2010,08,26,17,51,20.90
2010,08,26,17,52,22.50
2010,08,26,17,53,9.60
2010,08,26,17,54,9.60
2010,08,26,17,55,19.30
2010,08,26,17,56,24.20
2010,08,26,17,57,27.40
2010,08,26,17,58,32.20
2010,08,26,17,59,24.20
2010,08,26,18,00,25.70
2010,08,26,18,01,33.80
2010,08,26,18,02,22.50
2010,08,26,18,03,25.70
2010,08,26,18,04,37.00
2010,08,26,18,05,24.20
2010,08,26,18,06,29.00
2010,08,26,18,07,24.20
2010,08,26,18,08,20.90
2010,08,26,18,09,25.70
2010,08,26,18,10,30.60
2010,08,26,18,11,27.40
2010,08,26,18,12,25.70
2010,08,26,18,13,27.40
2010,08,26,18,14,22.50
2010,08,26,18,15,29.00
2010,08,26,18,16,24.20
2010,08,26,18,17,33.80
2010,08,26,18,18,24.20
2010,08,26,18,19,25.70
2010,08,26,18,20,20.90
2010,08,26,18,21,35.40
2010,08,26,18,22,32.20
2010,08,26,18,23,35.40
2010,08,26,18,24,22.50
2010,08,26,18,25,30.60
2010,08,26,18,26,22.50
2010,08,26,18,27,30.60
2010,08,26,18,28,32.20
2010,08,26,18,29,32.20
2010,08,26,18,30,33.80
2010,08,26,18,31,30.60
2010,08,26,18,32,27.40
2010,08,26,18,33,22.50
2010,08,26,18,34,30.60
2010,08,26,18,35,32.20
2010,08,26,18,36,37.00
2010,08,26,18,37,37.00
2010,08,26,18,38,22.50
2010,08,26,18,39,25.70
2010,08,26,18,40,30.60
2010,08,26,18,41,24.20
2010,08,26,18,42,24.20
2010,08,26,18,43,25.70
2010,08,26,18,44,25.70
2010,08,26,18,45,25.70
2010,08,26,18,46,24.20
2010,08,26,18,47,35.40
2010,08,26,18,48,32.20
2010,08,26,18,49,27.40
2010,08,26,18,50,35.40
2010,08,26,18,51,30.60
2010,08,26,18,52,29.00
2010,08,26,18,53,30.60
2010,08,26,18,54,16.10
2010,08,26,18,55,30.60
2010,08,26,18,56,30.60
2010,08,26,18,57,24.20
2010,08,26,18,58,27.40
2010,08,26,18,59,25.70
2010,08,26,19,00,29.00
2010,08,26,19,01,37.00
2010,08,26,19,02,27.40
2010,08,26,19,03,30.60
2010,08,26,19,04,30.60
2010,08,26,19,05,22.50
2010,08,26,19,06,33.80
2010,08,26,19,07,24.20
2010,08,26,19,08,24.20
2010,08,26,19,09,30.60
2010,08,26,19,10,25.70
2010,08,26,19,11,27.40
2010,08,26,19,12,33.80
2010,08,26,19,13,27.40
2010,08,26,19,14,27.40
2010,08,26,19,15,25.70
2010,08,26,19,16,20.90
2010,08,26,19,17,24.20
2010,08,26,19,18,32.20
2010,08,26,19,19,30.60
2010,08,26,19,20,33.80
2010,08,26,19,21,35.40
2010,08,26,19,22,30.60
2010,08,26,19,23,37.00
2010,08,26,19,24,20.90
2010,08,26,19,25,35.40
2010,08,26,19,26,30.60
2010,08,26,19,27,27.40
2010,08,26,19,28,22.50
2010,08,26,19,29,14.50
2010,08,26,19,30,11.30
2010,08,26,19,31,27.40
2010,08,26,19,32,20.90
2010,08,26,19,33,24.20
2010,08,26,19,34,20.90
2010,08,26,19,35,20.90
2010,08,26,19,36,16.10
2010,08,26,19,37,27.40
2010,08,26,19,38,20.90
2010,08,26,19,39,19.30
2010,08,26,19,40,20.90
2010,08,26,19,41,8.10
2010,08,26,19,42,20.90
2010,08,26,19,43,22.50
2010,08,26,19,44,17.70
2010,08,26,19,45,32.20
2010,08,26,19,46,20.90
2010,08,26,19,47,17.70
2010,08,26,19,48,27.40
2010,08,26,19,49,24.20
2010,08,26,19,50,20.90
2010,08,26,19,51,27.40
2010,08,26,19,52,22.50
2010,08,26,19,53,32.20
2010,08,26,19,54,17.70
2010,08,26,19,55,17.70
2010,08,26,19,56,17.70
2010,08,26,19,57,22.50
2010,08,26,19,58,14.50
2010,08,26,19,59,16.10
2010,08,26,20,00,14.50
2010,08,26,20,01,9.60
2010,08,26,20,02,20.90
2010,08,26,20,03,11.30
2010,08,26,20,04,8.10
2010,08,26,20,05,14.50
2010,08,26,20,06,20.90
2010,08,26,20,07,14.50
2010,08,26,20,08,11.30
2010,08,26,20,09,8.10
2010,08,26,20,10,14.50
2010,08,26,20,11,16.10
2010,08,26,20,12,20.90
2010,08,26,20,13,25.70
2010,08,26,20,14,20.90
2010,08,26,20,15,27.40
2010,08,26,20,16,16.10
2010,08,26,20,17,24.20
2010,08,26,20,18,24.20
2010,08,26,20,19,22.50
2010,08,26,20,20,22.50
2010,08,26,20,21,20.90
2010,08,26,20,22,17.70
2010,08,26,20,23,24.20
2010,08,26,20,24,16.10
2010,08,26,20,25,16.10
2010,08,26,20,26,20.90
2010,08,26,20,27,22.50
2010,08,26,20,28,27.40
2010,08,26,20,29,20.90
2010,08,26,20,30,20.90
2010,08,26,20,31,27.40
2010,08,26,20,32,22.50
2010,08,26,20,33,20.90
2010,08,26,20,34,29.00
2010,08,26,20,35,20.90
2010,08,26,20,36,25.70
2010,08,26,20,37,22.50
2010,08,26,20,38,20.90
2010,08,26,20,39,19.30
2010,08,26,20,40,16.10
2010,08,26,20,41,24.20
2010,08,26,20,42,24.20
2010,08,26,20,43,27.40
2010,08,26,20,44,19.30
2010,08,26,20,45,17.70
2010,08,26,20,46,17.70
2010,08,26,20,47,24.20
2010,08,26,20,48,24.20
2010,08,26,20,49,33.80
2010,08,26,20,50,22.50
2010,08,26,20,51,20.90
2010,08,26,20,52,22.50
2010,08,26,20,53,25.70
2010,08,26,20,54,27.40
2010,08,26,20,55,16.10
2010,08,26,20,56,22.50
2010,08,26,20,57,29.00
2010,08,26,20,58,24.20
2010,08,26,20,59,27.40
2010,08,26,21,00,22.50
2010,08,26,21,01,20.90
2010,08,26,21,02,20.90
2010,08,26,21,03,17.70
2010,08,26,21,04,17.70
2010,08,26,21,05,24.20
2010,08,26,21,06,20.90
2010,08,26,21,07,22.50
2010,08,26,21,08,19.30
2010,08,26,21,09,17.70
2010,08,26,21,10,17.70
2010,08,26,21,11,16.10
2010,08,26,21,12,14.50
2010,08,26,21,13,19.30
2010,08,26,21,14,16.10
2010,08,26,21,15,27.40
2010,08,26,21,16,17.70
2010,08,26,21,17,24.20
2010,08,26,21,18,16.10
2010,08,26,21,19,17.70
2010,08,26,21,20,20.90
2010,08,26,21,21,17.70
2010,08,26,21,22,17.70
2010,08,26,21,23,20.90
2010,08,26,21,24,17.70
2010,08,26,21,25,16.10
2010,08,26,21,26,17.70
2010,08,26,21,27,17.70
2010,08,26,21,28,20.90
2010,08,26,21,29,24.20
2010,08,26,21,30,24.20
2010,08,26,21,31,14.50
2010,08,26,21,32,17.70
2010,08,26,21,33,19.30
2010,08,26,21,34,17.70
2010,08,26,21,35,22.50
2010,08,26,21,36,24.20
2010,08,26,21,37,25.70
2010,08,26,21,38,17.70
2010,08,26,21,39,20.90
2010,08,26,21,40,19.30
2010,08,26,21,41,17.70
2010,08,26,21,42,19.30
2010,08,26,21,43,22.50
2010,08,26,21,44,17.70
2010,08,26,21,45,17.70
2010,08,26,21,46,20.90
2010,08,26,21,47,14.50
2010,08,26,21,48,19.30
2010,08,26,21,49,16.10
2010,08,26,21,50,25.70
2010,08,26,21,51,16.10
2010,08,26,21,52,14.50
2010,08,26,21,53,19.30
2010,08,26,21,54,12.90
2010,08,26,21,55,11.30
2010,08,26,21,56,14.50
2010,08,26,21,57,6.40
2010,08,26,21,58,6.40
2010,08,26,21,59,19.30
2010,08,26,22,00,16.10
2010,08,26,22,01,11.30
2010,08,26,22,02,17.70
2010,08,26,22,03,17.70
2010,08,26,22,04,16.10
2010,08,26,22,05,17.70
2010,08,26,22,06,11.30
2010,08,26,22,07,16.10
2010,08,26,22,08,12.90
2010,08,26,22,09,14.50
2010,08,26,22,10,17.70
2010,08,26,22,11,17.70
2010,08,26,22,12,17.70
2010,08,26,22,13,14.50
2010,08,26,22,14,25.70
2010,08,26,22,15,20.90
2010,08,26,22,16,22.50
2010,08,26,22,17,11.30
2010,08,26,22,18,9.60
2010,08,26,22,19,9.60
2010,08,26,22,20,20.90
2010,08,26,22,21,14.50
2010,08,26,22,22,16.10
2010,08,26,22,23,19.30
2010,08,26,22,24,24.20
2010,08,26,22,25,17.70
2010,08,26,22,26,20.90
2010,08,26,22,27,19.30
2010,08,26,22,28,12.90
2010,08,26,22,29,19.30
2010,08,26,22,30,17.70
2010,08,26,22,31,19.30
2010,08,26,22,32,19.30
2010,08,26,22,33,16.10
2010,08,26,22,34,14.50
2010,08,26,22,35,17.70
2010,08,26,22,36,16.10
2010,08,26,22,37,11.30
2010,08,26,22,38,14.50
2010,08,26,22,39,20.90
2010,08,26,22,40,29.00
2010,08,26,22,41,24.20
2010,08,26,22,42,20.90
2010,08,26,22,43,27.40
2010,08,26,22,44,27.40
2010,08,26,22,45,24.20
2010,08,26,22,46,29.00
2010,08,26,22,47,17.70
2010,08,26,22,48,20.90
2010,08,26,22,49,25.70
2010,08,26,22,50,22.50
2010,08,26,22,51,19.30
2010,08,26,22,52,16.10
2010,08,26,22,53,24.20
2010,08,26,22,54,25.70
2010,08,26,22,55,22.50
2010,08,26,22,56,24.20
2010,08,26,22,57,24.20
2010,08,26,22,58,19.30
2010,08,26,22,59,27.40
2010,08,26,23,00,17.70
2010,08,26,23,01,25.70
2010,08,26,23,02,20.90
2010,08,26,23,03,20.90
2010,08,26,23,04,30.60
2010,08,26,23,05,14.50
2010,08,26,23,06,20.90
2010,08,26,23,07,30.60
2010,08,26,23,08,11.30
2010,08,26,23,09,17.70
2010,08,26,23,10,14.50
2010,08,26,23,11,20.90
2010,08,26,23,12,24.20
2010,08,26,23,13,11.30
2010,08,26,23,14,16.10
2010,08,26,23,15,24.20
2010,08,26,23,16,22.50
2010,08,26,23,17,20.90
2010,08,26,23,18,22.50
2010,08,26,23,19,16.10
2010,08,26,23,20,20.90
2010,08,26,23,21,16.10
2010,08,26,23,22,20.90
2010,08,26,23,23,17.70
2010,08,26,23,24,20.90
2010,08,26,23,25,19.30
2010,08,26,23,26,17.70
2010,08,26,23,27,17.70
2010,08,26,23,28,14.50
2010,08,26,23,29,20.90
2010,08,26,23,30,22.50
2010,08,26,23,31,24.20
2010,08,26,23,32,16.10
2010,08,26,23,33,19.30
2010,08,26,23,34,11.30
2010,08,26,23,35,20.90
2010,08,26,23,36,24.20
2010,08,26,23,37,24.20
2010,08,26,23,38,35.40
2010,08,26,23,39,22.50
2010,08,26,23,40,24.20
2010,08,26,23,41,20.90
2010,08,26,23,42,22.50
2010,08,26,23,43,14.50
2010,08,26,23,44,20.90
2010,08,26,23,45,20.90
2010,08,26,23,46,16.10
2010,08,26,23,47,17.70
2010,08,26,23,48,17.70
2010,08,26,23,49,17.70
2010,08,26,23,50,17.70
2010,08,26,23,51,14.50
2010,08,26,23,52,9.60
2010,08,26,23,53,17.70
2010,08,26,23,54,16.10
2010,08,26,23,55,16.10
2010,08,26,23,56,16.10
2010,08,26,23,57,11.30
2010,08,26,23,58,17.70
2010,08,26,23,59,11.30
